This is the latest recevied weather packets stored in our database for station/object K3JSE-2. If no packets are shown the sender has not sent any weather packets the latest 10 day(s).
| Time | Temp. | Humidity | Pressure | Rain* | Wind** | Luminosity | Snow |
|---|---|---|---|---|---|---|---|
| 1777587021 | 13.89° C | 61% | 1009.1 hPa | 0 mm | - | - | - |
| 1777586758 | 14.44° C | 61% | 1009 hPa | 0 mm | - | - | - |
| 1777586508 | 14.44° C | 61% | 1008.9 hPa | 0 mm | - | - | - |
| 1777586261 | 14.44° C | 60% | 1008.7 hPa | 0 mm | - | - | - |
| 1777586003 | 15° C | 60% | 1008.7 hPa | 0 mm | - | - | - |
| 1777585728 | 15.56° C | 56% | 1008.5 hPa | 0 mm | - | - | - |
| 1777585461 | 15.56° C | 56% | 1008.3 hPa | 0 mm | - | - | - |
| 1777585208 | 15.56° C | 56% | 1008.3 hPa | 0 mm | - | - | - |
| 1777584959 | 15.56° C | 54% | 1008.2 hPa | 0 mm | - | - | - |
| 1777584681 | 15.56° C | 56% | 1008.1 hPa | 0 mm | - | - | - |
| 1777584381 | 15.56° C | 56% | 1008 hPa | 0 mm | - | - | - |
| 1777584133 | 15.56° C | 55% | 1008 hPa | 0 mm | - | - | - |
| 1777583868 | 15.56° C | 54% | 1008 hPa | 0 mm | - | - | - |
| 1777583573 | 15.56° C | 54% | 1008 hPa | 0 mm | - | - | - |
| 1777583273 | 15.56° C | 54% | 1008.1 hPa | 0 mm | - | - | - |
| 1777583008 | 15.56° C | 53% | 1008.1 hPa | 0 mm | - | - | - |
| 1777582738 | 15.56° C | 53% | 1008 hPa | 0 mm | - | - | - |
| 1777582453 | 15.56° C | 54% | 1008 hPa | 0 mm | - | - | - |
| 1777582208 | 15.56° C | 54% | 1007.9 hPa | 0 mm | - | - | - |
| 1777581958 | 16.11° C | 53% | 1007.7 hPa | 0 mm | - | - | - |
| 1777581698 | 16.11° C | 53% | 1007.7 hPa | 0 mm | - | - | - |
| 1777581436 | 16.11° C | 54% | 1007.7 hPa | 0 mm | - | - | - |
| 1777581141 | 16.11° C | 54% | 1007.8 hPa | 0 mm | - | - | - |
| 1777580883 | 16.11° C | 55% | 1007.7 hPa | 0 mm | - | - | - |
| 1777580633 | 16.11° C | 53% | 1007.7 hPa | 0 mm | - | - | - |
* Rain latest hour (hover to see other rain measurements)
** Current wind speed in m/s (hover to see current wind gust speed)